[[{"header":{"parameterUnit":"m.s-1","parameterCategory":1,"la1":30.2991,"la2":30.254,"lo1":-89.0895,"lo2":-89.0444,"dy":0.0017,"dx":0.0017,"nx":28,"ny":28,"refTime":"2023-10-09T21:00:00:Z","depth":0,"parameterNumber":2,"parameterNumberName":"U-component_of_WINDS"},"data":[0,0,0,0,0,0,0,0,0,0,0,0,0,0,0,0,0,0,0,0,0,0,0,0,0,0,0,0,0,0,0,0,0,0,0,0,0,0,0,0,0,0,0,0,0,0,0,0,0,0,0,0,0,0,0,0,0,0,-0.689,-0.689,0,-0.6935,-0.6936,-0.6936,-0.6918,-0.6917,-0.6915,-0.6914,-0.6962,-0.6965,-0.6967,0,0,0,0,0,0,0,0,0,0,0,0,0,-0.6787,-0.6789,-0.6889,-0.689,-0.6891,-0.6935,-0.6936,-0.6936,-0.6918,-0.6916,-0.6915,-0.6914,-0.6962,-0.6964,-0.6967,0,0,0,0,0,0,0,0,0,0,0,0,0,-0.6832,-0.679,-0.6889,-0.6887,-0.6887,-0.6935,-0.6936,-0.6937,-0.6918,-0.6916,-0.6915,-0.6913,-0.6961,-0.6964,-0.6967,-0.7021,0,0,-0.6978,-0.6979,0,0,0,0,0,0,0,0,-0.683,-0.6836,-0.6887,-0.6887,-0.6887,-0.6919,-0.6917,-0.6965,-0.6918,-0.6906,-0.6914,-0.6912,-0.6949,-0.6954,-0.6966,-0.7023,-0.7026,-0.6978,-0.698,-0.6982,-0.6983,0,0,0,0,0,0,0,-0.6827,-0.6834,-0.6908,-0.6887,-0.6888,-0.6884,-0.6888,-0.6926,-0.6936,-0.6907,-0.6906,-0.6912,-0.6949,-0.6963,-0.6967,-0.7026,-0.6978,-0.6981,-0.6983,-0.6985,-0.7131,-0.7133,0,0,0,0,0,0,-0.6823,-0.6832,-0.6906,-0.6909,-0.6854,-0.6887,-0.6892,-0.6911,-0.6936,-0.6938,-0.6913,-0.6911,-0.6957,-0.6963,-0.6968,-0.7034,-0.6982,-0.6985,-0.6987,-0.713,-0.7132,-0.7134,0,0,0,0,0,0,-0.6821,-0.683,-0.6904,-0.687,-0.6879,-0.689,-0.6911,-0.6912,-0.6926,-0.694,-0.6942,-0.6925,-0.6956,-0.6964,-0.7008,-0.7035,-0.6987,-0.699,-0.7127,-0.713,-0.7133,-0.7165,0,0,0,0,0,0,-0.6818,-0.683,-0.685,-0.6871,-0.6881,-0.6943,-0.6913,-0.6914,-0.6931,-0.6929,-0.6952,-0.6954,-0.6956,-0.7003,-0.7012,-0.7039,-0.6992,-0.7125,-0.7129,-0.7132,-0.7162,-0.7169,-0.7175,0,0,0,0,0,-0.6815,-0.6857,-0.6851,-0.686,-0.6906,-0.6945,-0.6951,-0.6952,-0.6934,-0.6954,-0.6964,-0.6953,-0.7031,-0.7008,-0.7017,-0.7046,-0.7123,-0.7128,-0.7132,-0.7159,-0.7167,-0.7174,0,0,0,0,0,0,-0.684,-0.686,-0.6853,-0.6903,-0.6923,-0.6942,-0.6968,-0.696,-0.6985,-0.6982,-0.6982,-0.6988,-0.7034,-0.7044,-0.7019,-0.71,-0.7074,-0.7081,-0.7092,-0.71,-0.7106,-0.7103,-0.6995,0,0,0,0,0,-0.6851,-0.688,-0.6896,-0.6939,-0.6949,-0.6957,-0.6973,-0.6972,-0.6992,-0.7001,-0.7013,-0.7034,-0.7062,-0.7082,-0.7109,-0.7163,-0.7168,-0.7187,-0.7194,-0.7199,-0.7205,-0.7235,-0.7244,-0.7147,-0.7147,-0.7147,0,0,-0.6875,-0.6889,-0.6908,-0.6944,-0.6959,-0.699,-0.6964,-0.6997,-0.702,-0.7006,-0.7049,-0.7059,-0.7082,-0.7132,-0.7154,-0.7142,-0.7232,-0.7204,-0.7208,-0.7211,-0.724,-0.7249,-0.7257,-0.715,-0.715,-0.7149,0,0,-0.6934,-0.6947,-0.6985,-0.7,-0.7022,-0.7027,-0.7036,-0.7057,-0.7063,-0.7106,-0.7096,-0.7124,-0.7174,-0.719,-0.7205,-0.7271,-0.7263,-0.728,-0.7314,-0.7343,-0.7351,-0.7358,-0.7382,-0.7391,-0.7285,-0.7285,-0.7286,0,-0.696,-0.7006,-0.7005,-0.7039,-0.7056,-0.7044,-0.7083,-0.7098,-0.7128,-0.714,-0.7126,-0.7188,-0.7203,-0.7257,-0.7273,-0.7285,-0.7296,-0.7278,-0.735,-0.7357,-0.7363,-0.7387,-0.7396,-0.7288,-0.7287,-0.7287,-0.7287,0,-0.7038,-0.707,-0.7098,-0.7127,-0.7147,-0.7183,-0.7189,-0.7209,-0.7206,-0.7213,-0.7257,-0.7274,-0.7305,-0.7318,-0.7315,-0.7372,-0.7363,-0.7349,-0.7324,-0.7374,-0.7396,-0.7405,-0.729,-0.729,-0.7289,-0.7289,0,0,-0.7115,-0.7144,-0.7154,-0.7168,-0.7191,-0.7216,-0.7252,-0.7282,-0.73,-0.7321,-0.7352,-0.7395,-0.7382,-0.7399,-0.7398,-0.7424,-0.7477,-0.7407,-0.7408,-0.7421,-0.7541,-0.7552,-0.7563,-0.7471,-0.7472,-0.7474,-0.754,0,-0.7177,-0.724,-0.724,-0.7298,-0.7328,-0.7317,-0.7348,-0.7367,-0.7374,-0.7401,-0.7409,-0.7439,-0.742,-0.743,-0.7455,-0.7465,-0.7501,-0.746,-0.75,-0.7502,-0.7496,-0.7574,-0.7586,-0.7648,-0.7548,-0.755,-0.7551,0,-0.7258,-0.7282,-0.7343,-0.7363,-0.7375,-0.7404,-0.7432,-0.7457,-0.7478,-0.7481,-0.7501,-0.7496,-0.7533,-0.7506,-0.7558,-0.753,-0.7546,-0.7554,-0.7556,-0.7561,-0.753,-0.7582,-0.7667,-0.7677,-0.7564,-0.7563,-0.7562,0,-0.7309,-0.7356,-0.7399,-0.7411,-0.7435,-0.7456,-0.7467,-0.7486,-0.7504,-0.7529,-0.7541,-0.7569,-0.7585,-0.7608,-0.7611,-0.759,-0.7664,-0.7636,-0.7669,-0.7669,-0.7686,-0.7685,-0.7776,-0.7694,-0.7694,-0.7694,-0.7694,0,-0.7379,-0.7417,-0.7423,-0.7449,-0.7492,-0.7492,-0.7534,-0.7544,-0.7561,-0.759,-0.7581,-0.7609,-0.7611,-0.7639,-0.7642,-0.7686,-0.7693,-0.7697,-0.7698,-0.7699,-0.7698,-0.771,-0.7707,-0.7696,-0.7696,-0.7695,-0.7695,0,-0.7444,-0.7449,-0.7496,-0.7515,-0.752,-0.7551,-0.7568,-0.7593,-0.7599,-0.7636,-0.7645,-0.7655,-0.7687,-0.7693,-0.7731,-0.7734,-0.7786,-0.7781,-0.7779,-0.7779,-0.7811,-0.7809,-0.7914,-0.7929,-0.7837,-0.7837,-0.7838,0,-0.7489,-0.7518,-0.754,-0.7559,-0.7571,-0.76,-0.7619,-0.762,-0.764,-0.7666,-0.7689,-0.7721,-0.7746,-0.7799,-0.7811,-0.784,-0.7837,-0.7872,-0.7842,-0.7842,-0.7839,-0.7838,-0.7842,-0.7879,-0.788,-0.788,-0.7881,0,-0.7569,-0.757,-0.7596,-0.7624,-0.7647,-0.7669,-0.769,-0.7705,-0.7709,-0.7732,-0.7765,-0.7785,-0.7825,-0.7857,-0.7886,-0.7898,-0.7891,-0.789,-0.79,-0.7902,-0.7899,-0.7902,-0.7796,-0.7888,-0.7887,-0.7887,-0.7887,-0.7886,-0.7626,-0.7652,-0.7671,-0.7702,-0.7717,-0.7737,-0.7762,-0.7772,-0.7799,-0.7831,-0.783,-0.7867,-0.7888,-0.7926,-0.794,-0.797,-0.7959,-0.7972,-0.7975,-0.7979,-0.7983,-0.7894,-0.7975,-0.7975,-0.7975,-0.7974,-0.7974,0,-0.7706,-0.7718,-0.7746,-0.7775,-0.7799,-0.7789,-0.7812,-0.7833,-0.7865,-0.7885,-0.791,-0.7949,-0.798,-0.7994,-0.8025,-0.8046,-0.8043,-0.8054,-0.8053,-0.8056,-0.799,-0.798,-0.8055,-0.8055,-0.8055,-0.8055,-0.8055,-0.8055,-0.7751,-0.7794,-0.7798,-0.7849,-0.786,-0.7896,-0.791,-0.7929,-0.7944,-0.7988,-0.8014,-0.8022,-0.8039,-0.8071,-0.81,-0.8103,-0.8115,-0.8128,-0.813,-0.8069,-0.8061,-0.8053,-0.8043,-0.813,-0.8131,-0.8193,-0.8194,-0.8194]},{"header":{"parameterUnit":"m.s-1","parameterCategory":1,"la1":30.2991,"la2":30.254,"lo1":-89.0895,"lo2":-89.0444,"dy":0.0017,"dx":0.0017,"nx":28,"ny":28,"refTime":"2023-10-09T21:00:00:Z","depth":0,"parameterNumber":3,"parameterNumberName":"V-component_of_WINDS"},"data":[0,0,0,0,0,0,0,0,0,0,0,0,0,0,0,0,0,0,0,0,0,0,0,0,0,0,0,0,0,0,0,0,0,0,0,0,0,0,0,0,0,0,0,0,0,0,0,0,0,0,0,0,0,0,0,0,0,0,2.2999,2.2999,0,2.2994,2.2994,2.2994,2.2979,2.2979,2.2978,2.2978,2.2973,2.2973,2.2974,0,0,0,0,0,0,0,0,0,0,0,0,0,2.2996,2.2996,2.2999,2.2999,2.2999,2.2994,2.2994,2.2994,2.2979,2.2979,2.2978,2.2978,2.2973,2.2973,2.2974,0,0,0,0,0,0,0,0,0,0,0,0,0,2.2995,2.2996,2.2999,2.2991,2.299,2.2994,2.2994,2.2994,2.2979,2.2979,2.2978,2.2978,2.2973,2.2973,2.2974,2.2985,0,0,2.2975,2.2975,0,0,0,0,0,0,0,0,2.2995,2.2995,2.2992,2.2992,2.2991,2.2987,2.2991,2.2991,2.2979,2.2983,2.2978,2.2978,2.2978,2.2978,2.2978,2.2985,2.2985,2.2975,2.2975,2.2975,2.2975,0,0,0,0,0,0,0,2.2995,2.2995,2.2997,2.2992,2.2991,2.2988,2.2987,2.2991,2.2984,2.2983,2.2982,2.2982,2.2978,2.2978,2.2978,2.2985,2.2975,2.2975,2.2975,2.2975,2.3001,2.3002,0,0,0,0,0,0,2.2996,2.2995,2.2997,2.2997,2.2992,2.2988,2.2987,2.2989,2.2984,2.2982,2.2982,2.2981,2.2978,2.2978,2.2978,2.2991,2.2975,2.2975,2.2975,2.3001,2.3001,2.3002,0,0,0,0,0,0,2.2996,2.2997,2.2998,2.2996,2.2996,2.2989,2.299,2.2989,2.2989,2.2983,2.2981,2.2984,2.2977,2.2977,2.2984,2.299,2.2975,2.2975,2.3,2.3001,2.3001,2.3017,0,0,0,0,0,0,2.2996,2.2997,2.3001,2.2996,2.2996,2.3003,2.2991,2.2989,2.299,2.2988,2.2984,2.2983,2.2977,2.2983,2.2984,2.299,2.2976,2.2999,2.3,2.3001,2.3016,2.3018,2.302,0,0,0,0,0,2.2996,2.3006,2.3001,2.3002,2.3001,2.3004,2.3004,2.2997,2.299,2.2994,2.299,2.2983,2.299,2.2984,2.2985,2.2991,2.2999,2.3,2.3001,2.3015,2.3018,2.302,0,0,0,0,0,0,2.3011,2.3005,2.3,2.3008,2.3007,2.3001,2.3006,2.3,2.3001,2.2999,2.2991,2.299,2.2997,2.2995,2.2989,2.3002,2.2993,2.2994,2.3003,2.3006,2.3008,2.3008,2.2976,0,0,0,0,0,2.3015,2.3018,2.3012,2.302,2.302,2.3013,2.3014,2.3009,2.3007,2.3007,2.3003,2.3002,2.3003,2.3005,2.3006,2.3016,2.3014,2.3021,2.3023,2.3025,2.3026,2.303,2.3033,2.3006,2.3006,2.3006,0,0,2.3024,2.3021,2.3023,2.3023,2.3021,2.3024,2.3013,2.3016,2.3018,2.3007,2.3012,2.301,2.3008,2.3016,2.3019,2.3014,2.3033,2.3026,2.3028,2.3028,2.3032,2.3034,2.3037,2.3006,2.3006,2.3006,0,0,2.3041,2.304,2.3045,2.3044,2.3042,2.3037,2.3039,2.3035,2.3033,2.3038,2.303,2.3032,2.3036,2.3034,2.3034,2.3052,2.3045,2.3052,2.3063,2.3068,2.307,2.3072,2.3078,2.308,2.3054,2.3054,2.3054,0,2.3052,2.3056,2.3049,2.3053,2.3054,2.3044,2.305,2.3049,2.3047,2.3047,2.3042,2.3046,2.3044,2.3051,2.3056,2.3056,2.3057,2.3052,2.3071,2.3072,2.3074,2.3079,2.3081,2.3055,2.3054,2.3054,2.3054,0,2.307,2.3073,2.3078,2.3076,2.3077,2.3082,2.3076,2.3078,2.3073,2.3069,2.3075,2.3073,2.3073,2.3075,2.307,2.3081,2.3078,2.3072,2.3062,2.3077,2.3082,2.3084,2.3056,2.3056,2.3055,2.3055,0,0,2.3095,2.309,2.3092,2.3091,2.3088,2.309,2.3095,2.3096,2.3097,2.3097,2.31,2.3104,2.3098,2.3098,2.3093,2.3097,2.311,2.309,2.309,2.3093,2.3122,2.3126,2.3128,2.3106,2.3107,2.3107,2.3122,0,2.311,2.3118,2.3112,2.3121,2.3123,2.3114,2.3119,2.3117,2.3114,2.3116,2.3113,2.3115,2.3108,2.3108,2.3111,2.3108,2.3116,2.3107,2.3109,2.3109,2.3109,2.3131,2.3135,2.3149,2.3124,2.3124,2.3124,0,2.3129,2.3129,2.3138,2.3135,2.3135,2.3139,2.3139,2.3141,2.314,2.3137,2.3138,2.3132,2.3136,2.3128,2.3134,2.3128,2.3129,2.3127,2.3128,2.3127,2.3117,2.313,2.3154,2.3155,2.3127,2.3127,2.3127,0,2.3145,2.3148,2.3153,2.3153,2.315,2.3152,2.3151,2.3149,2.315,2.315,2.3151,2.3152,2.3152,2.3153,2.3147,2.3142,2.3154,2.3145,2.3152,2.3152,2.3153,2.3153,2.3177,2.3156,2.3156,2.3156,2.3156,0,2.3162,2.3168,2.3161,2.3164,2.317,2.3164,2.317,2.3168,2.3166,2.3169,2.3162,2.3165,2.3158,2.316,2.3156,2.3161,2.3162,2.316,2.3158,2.316,2.316,2.3159,2.3158,2.3156,2.3156,2.3156,2.3156,0,2.3181,2.3176,2.3182,2.3178,2.3177,2.3182,2.3179,2.3182,2.3179,2.3182,2.3183,2.3178,2.318,2.3175,2.3177,2.3174,2.3181,2.3179,2.3182,2.3181,2.3187,2.3186,2.321,2.3213,2.3191,2.3191,2.3192,0,2.3191,2.3195,2.3192,2.3194,2.3193,2.3195,2.3196,2.319,2.3191,2.319,2.3193,2.3195,2.3196,2.32,2.3196,2.3197,2.3194,2.3203,2.3195,2.3196,2.3194,2.3193,2.3193,2.3204,2.3205,2.3205,2.3205,0,2.321,2.3208,2.3209,2.321,2.3211,2.3212,2.3211,2.3213,2.3207,2.3209,2.3211,2.3212,2.3213,2.3215,2.3215,2.3214,2.3208,2.3208,2.3209,2.321,2.3211,2.321,2.3185,2.3207,2.3207,2.3207,2.3206,2.3206,2.3225,2.3228,2.3226,2.3228,2.3227,2.3227,2.323,2.3227,2.3229,2.323,2.3227,2.3229,2.3228,2.3228,2.3228,2.323,2.3226,2.3228,2.3229,2.3229,2.323,2.3212,2.323,2.323,2.323,2.323,2.323,0,2.3242,2.3241,2.3243,2.3243,2.3244,2.324,2.3239,2.3241,2.3243,2.3243,2.3244,2.3246,2.3248,2.3245,2.3246,2.3249,2.3246,2.3249,2.3248,2.3248,2.3233,2.3232,2.3251,2.3251,2.3251,2.3251,2.3251,2.3251,2.3252,2.3257,2.3254,2.3259,2.3258,2.326,2.326,2.326,2.326,2.3263,2.3264,2.3263,2.3261,2.3262,2.3264,2.3263,2.3263,2.3267,2.3265,2.3251,2.3249,2.3247,2.3245,2.3267,2.3267,2.3279,2.3279,2.3279]}]]